SL-16 DEB, 27750

Orbit data source: Space-Track

SL-16 DEB, 27750 is space debris in LEO originally from a launch on Fri, 25 Dec 1992 UTC launched from the Tyuratam Missile And Space Complex (TTMTR). Debris objects in space refer to the collection of defunct objects orbiting the Earth. Examples of debris include non-operational satellites, rocket bodies, and fragments generated from explosions, collisions, or faulty payload assembly.

Loading next visibility...
Identifier
27750, 1992-093JM
Orbit
LEO
Country
Flag of CISCIS
Related business
Manufacturer
Unknown
Mission
Spacecraft
Bus & Motor
Unknown
Mass
Unknown
Launch date (UTC)
1992-12-25 (33 years ago)
Launch vehicle
Unknown
Launch site
Tyuratam Missile And Space Complex (TTMTR)
Object type
Payload
Rocket body
Debris
Shape & HBR
Unknown shape, 0.1 m
Radar Cross Section
Small (<0.1 m²)

Expand to show TLE details & history
Last TLE update: 1 day ago

TLE from 1 day ago
0 SL-16 DEB
1 27750U 92093JM  25302.77641316  .00005297  00000-0  17250-2 0  9991
2 27750  71.1526 222.7270 0082342 266.7730  92.3982 14.37215197638737
Epoch: 2025-10-29T18:38Z
TLE epoch observation values (Epoch: 2025-10-29T18:38:02.097Z)
Latitude
-0.00003°
Longitude
-95.12644°
Altitude
773.096 km
Speed
7.466 km/s
True Right ascension
14h 50m 54s
True Declination
0° 00' 00"
Sunlit
Object was in daylight at epoch
Visualization orbit readout
Latitude
Unknown
Longitude
Unknown
Altitude
Unknown
Speed
Unknown
Apparent Right ascension
Unknown
Apparent Declination
Unknown
Sunlit
N/A
Visualization observer readout
Local Sidereal Time
19:49:05
Azimuth
Unknown
Elevation
Unknown
Doppler factor
Unknown
Orbital elements
Apogee altitude
824.425 km
Perigee altitude
706.779 km
Semi-major axis
7,143.739 km
Eccentricity
0.00823
Inclination
71.1526°
RAAN
222.727°
Arg. of periapsis
266.773°
True anomaly
93.3405°
Mean anomaly
92.3982°
Eccentric anomaly
92.86939°
Mean motion
3.59463 °/min
Orbital period
100.15 mins
BSTAR
0.001725
Loading maneuver chart data...
Computing Atmospheric mass density...
Loading historical data...
Loading historical data...
Loading historical data...
Loading historical data...
Loading historical data...
Loading historical data...
Loading historical data...

Documentation

Showing up to 5 results
|